Regional Weather Roundup
Issued by NWS Cleveland, OH

Home | Current Version | Previous Version | Graphics & Text | Print | Product List | Glossary Off
Versions: 1 2 3 4 5 6 7 8 9 10 11 12 13 14 15 16 17 18 19 20 21 22 23 24 25 26 27 28 29 30 31 32 33 34 35 36 37 38 39 40 41 42 43 44 45 46 47 48 49 50

000
ASUS41 KCLE 272112
RWRCLE
OHIO REGIONAL WEATHER ROUNDUP
NATIONAL WEATHER SERVICE WILMINGTON, OH
500 PM EDT SAT MAY 27 2017

NOTE: "FAIR" INDICATES FEW OR NO CLOUDS BELOW 12,000 FEET WITH NO
SIGNIFICANT WEATHER AND/OR OBSTRUCTIONS TO VISIBILITY.

OHZ001>008-015>018-024>027-034-035-043-044-272200-
   NORTHWEST OHIO

CITY           SKY/WX    TMP DP  RH WIND       PRES   REMARKS
DEFIANCE       CLOUDY    72  60  66 NE8       29.88F
FINDLAY        CLOUDY    75  61  61 NE9       29.86F
TOLEDO EXPRESS PTSUNNY   72  56  57 E9        29.89S
TOLEDO EXEC    FAIR      73  54  51 E13       29.90S
LIMA           FAIR      75  63  66 CALM      29.86F
$$

OHZ009>014-019>023-028>033-038-089-272200-
   NORTHEAST OHIO

CITY           SKY/WX    TMP DP  RH WIND       PRES   REMARKS
CLE-HOPKINS    FAIR      72  52  49 N14       29.91S
CLE-LAKEFRONT  FAIR      65  57  75 N10       29.89F
CUY CO. ARPT   MOSUNNY   73  50  43 N14       29.90S
LORAIN-ELYRIA  FAIR      70  52  52 NE12      29.90S
ASHTABULA      FAIR      69  51  52 VRB6      29.91S
AKRON-CANTON   PTSUNNY   74  59  59 CALM      29.89S
WOOSTER        CLOUDY    72  59  63 CALM      29.89S
MANSFIELD      CLOUDY    74  61  63 VRB3      29.89S
YOUNGSTOWN     PTSUNNY   72  55  55 S5        29.89S
$$

OHZ042-051>053-060>062-070>072-077>081-272200-
  SOUTHWEST OHIO

CITY           SKY/WX    TMP DP  RH WIND       PRES   REMARKS
CINC-COVINGTON PTSUNNY   83  68  60 W9        29.84F
CINC-LUNKEN    FAIR      83  70  64 W7        29.82F
HAMILTON       FAIR      84  69  60 W5        29.83F
DAYTON         PTSUNNY   80  64  58 NW9       29.85F
WRIGHT-PAT AFB MOSUNNY   82  67  61 NW6       29.83F
DAYTON GENERAL FAIR      81  63  54 W7        29.83F
WILMINGTON     FAIR      81  67  62 W8        29.84F
$$

OHZ036-037-039>041-045>050-054>059-063>069-073>076-082>088-272200-
  CENTRAL AND SOUTHEAST OHIO

CITY           SKY/WX    TMP DP  RH WIND       PRES   REMARKS
COLUMBUS       PTSUNNY   79  66  64 E3        29.83F
OSU AIRPORT    FAIR      79  66  64 NW7       29.84F
BOLTON FIELD   MOSUNNY   79  68  69 NW7       29.85F
RICKENBACK AFB FAIR      79  67  64 W6        29.83F HAZE
NEWARK         PTSUNNY   79  64  60 VRB3      29.84F
MARION         CLOUDY    76  62  62 N6        29.87F
LANCASTER      FAIR      82  67  60 N7        29.84F
ZANESVILLE     PTSUNNY   78  64  61 N7        29.85F
NEW PHILLY     FAIR      76  62  62 NE3       29.88S
$$




USA.gov is the U.S. government's official web portal to all federal, state and local government web resources and services.